Theta_e
309 308 309 309 309 310 310 311 312 311 311 313 315 314 311 308 307 307 306 306 306 305 305 305 305 305 305 305 305 305 305 305 305 305 305 305 305 304 305 304 304 304
310 309 309 308 309 310 310 310 311 311 311 312 314 315 312 309 308 308 307 307 306 306 306 305 305 304 304 305 305 304 304 304 304 305 305 305 304 304 304 303 303 303
311 310 309 309 309 309 309 310 311 311 311 311 312 313 312 310 309 308 308 307 307 307 306 306 305 305 304 304 304 304 304 304 304 304 304 304 304 304 303 303 303 303
312 311 310 310 309 309 309 310 310 311 312 311 311 312 312 312 311 310 309 308 307 307 307 307 306 306 305 304 304 304 304 304 304 304 304 304 304 303 303 303 303 302
312 312 311 311 310 310 310 309 310 310 311 312 312 312 312 312 312 311 310 309 308 308 307 307 307 306 306 305 304 304 304 304 304 304 304 304 304 303 303 303 302 302
312 312 312 312 311 311 311 310 310 311 311 312 312 312 312 312 312 312 312 310 309 309 308 307 307 306 306 306 305 305 304 304 304 304 304 304 304 304 304 303 303 302
311 312 312 313 312 312 312 311 311 311 312 312 313 313 313 312 312 312 313 312 311 310 309 308 307 307 306 306 306 306 305 304 304 304 303 304 304 304 304 304 303 302
310 310 311 312 313 313 312 312 312 312 312 313 313 314 314 314 313 313 313 313 312 311 310 309 308 307 306 306 306 306 306 305 304 303 303 304 304 304 304 304 303 302
313 312 312 311 312 312 313 313 314 313 314 314 314 314 315 315 314 314 313 313 313 312 311 310 309 308 307 306 306 306 306 305 305 304 303 303 303 304 304 304 303 303
317 317 315 314 313 312 312 313 313 314 315 315 315 315 315 316 316 315 314 313 313 313 313 312 311 310 308 307 306 306 305 305 305 304 303 303 303 304 303 303 303 303
319 318 318 317 316 315 314 313 312 313 314 316 317 316 316 317 316 315 315 314 314 313 313 313 312 312 310 308 307 306 305 305 305 304 304 303 303 303 303 303 303 302
319 319 319 318 318 318 318 316 314 314 314 314 315 316 317 317 317 316 316 315 315 314 314 314 313 312 311 309 308 306 305 305 305 304 304 303 303 303 303 302 302 301
318 318 319 320 320 321 321 319 318 318 317 316 315 315 316 317 317 317 316 316 315 314 314 314 313 313 312 310 309 308 306 305 305 304 304 303 303 302 302 302 301 300
313 314 315 317 319 321 322 322 321 320 320 319 319 318 317 317 317 317 317 317 315 314 314 313 313 313 312 311 310 308 307 306 305 304 304 303 303 302 302 302 301 300
306 307 308 309 311 314 317 319 321 321 321 320 320 320 319 319 319 318 318 318 316 314 313 313 313 312 312 311 311 309 307 306 305 304 304 303 303 302 302 301 301 299
302 303 304 304 305 306 308 310 314 317 320 321 320 320 319 320 319 319 319 318 316 315 314 314 313 313 312 313 311 309 307 306 305 304 304 303 303 302 301 300 299 298
302 302 302 303 303 304 304 305 306 308 313 317 320 320 319 319 319 319 319 318 316 315 314 314 314 313 313 312 311 309 307 306 305 304 304 303 302 301 300 298 297 296
302 302 301 302 301 302 302 303 303 304 305 309 314 317 319 319 319 319 319 317 315 314 314 313 314 314 312 312 311 309 306 305 305 304 303 302 301 300 298 296 295 295
301 301 301 301 301 301 301 301 302 304 304 304 307 312 316 318 318 319 319 317 315 314 313 313 313 313 312 311 310 307 306 305 304 303 302 301 299 298 297 295 294 294
301 301 301 301 301 301 301 301 302 303 304 304 306 310 314 317 318 318 317 316 315 313 313 312 313 312 311 310 308 307 305 304 304 303 302 300 298 296 295 294 294 293
301 301 301 300 300 300 300 300 301 302 302 304 308 312 314 316 317 317 316 315 314 313 312 312 312 312 311 309 307 306 305 304 303 302 300 298 296 295 294 293 293 293
300 300 300 300 301 301 301 300 300 301 302 302 306 312 314 315 316 316 316 315 314 312 312 312 312 311 309 307 306 305 305 303 302 300 297 296 295 294 293 293 293 293
298 299 300 301 301 301 302 302 300 300 302 304 306 311 314 314 315 315 316 315 314 313 312 312 311 309 307 306 305 305 303 301 299 297 296 296 295 294 294 294 294 293
298 298 299 300 301 303 303 303 302 301 304 306 309 312 313 314 314 314 314 314 313 313 312 311 309 307 306 305 304 303 301 299 296 296 297 296 296 296 295 295 295 294
298 298 298 299 300 302 302 303 304 305 307 309 311 312 312 313 313 313 313 312 312 311 310 308 307 306 305 303 302 300 298 296 295 295 296 297 297 297 296 295 295 294
299 299 299 299 300 301 301 302 305 307 309 311 311 311 311 312 313 314 313 311 310 309 308 306 305 304 302 300 299 297 296 295 294 294 295 296 296 295 294 294 294 294
Wind_Speed
21 20 18 16 14 13 11 10 10 9 8 7 7 7 8 7 6 5 4 4 4 3 2 2 1 1 0 1 2 3 3 3 4 4 4 5 5 5 6 6 6 7
21 21 20 18 16 15 13 11 11 11 10 9 8 9 10 9 7 7 6 6 5 5 4 3 3 3 2 1 1 1 2 3 3 4 5 5 6 6 6 6 6 6
22 21 21 20 19 17 15 13 12 12 12 11 11 11 11 10 9 9 8 8 8 7 6 6 5 4 3 2 2 2 2 3 3 4 5 6 6 7 7 6 6 6
23 22 22 21 20 19 17 16 15 14 14 14 14 14 13 12 11 11 10 10 10 10 9 8 7 6 5 4 4 4 4 4 4 4 5 5 6 6 7 7 7 7
25 23 23 22 21 21 20 19 18 17 16 15 15 16 16 15 14 13 13 12 12 12 11 11 10 9 8 7 6 6 6 6 6 6 6 6 6 6 6 7 7 8
28 26 24 23 23 22 21 21 20 19 19 17 17 17 18 18 17 16 15 15 14 14 14 13 12 11 10 9 9 9 9 9 9 8 8 9 9 9 9 9 9 10
31 29 26 25 25 24 24 23 22 21 21 20 19 19 19 19 19 19 18 17 16 16 15 15 15 14 12 11 11 11 10 11 10 10 10 10 11 12 12 12 12 12
33 33 31 30 28 27 26 25 24 24 23 22 21 21 21 21 21 21 20 19 19 18 18 17 17 16 15 14 14 13 12 12 12 11 11 11 11 11 12 13 14 13
27 30 32 34 33 32 30 27 26 26 25 25 24 23 22 22 23 23 22 21 21 20 20 20 20 19 18 17 16 16 14 13 13 12 12 12 11 11 12 13 14 14
19 22 25 29 32 34 34 33 30 29 27 26 26 27 26 25 25 25 24 23 23 23 22 22 22 22 20 19 18 17 16 15 13 13 13 12 12 12 13 13 14 15
17 20 22 24 27 31 33 34 34 32 31 29 27 27 28 28 28 28 26 26 25 25 25 25 25 24 22 21 20 19 17 16 15 14 14 14 13 14 14 14 15 15
16 18 21 23 26 27 27 30 33 34 34 34 32 30 29 29 30 30 29 29 28 28 28 27 27 25 24 23 22 21 20 18 17 15 15 15 15 15 15 15 15 15
11 14 17 21 23 23 21 24 28 29 30 32 34 34 33 31 30 30 31 31 30 29 28 28 28 26 25 25 24 23 22 20 19 18 17 17 16 16 16 17 17 17
9 10 13 15 17 17 16 17 19 21 22 23 26 30 33 32 30 30 32 32 31 31 29 28 28 27 26 26 24 23 23 22 20 19 18 19 18 18 18 18 18 19
9 10 11 12 13 13 13 14 15 17 18 19 20 23 26 27 26 28 30 31 32 33 32 31 31 30 30 29 27 25 24 23 22 21 20 19 19 19 19 20 20 21
11 12 12 13 14 14 14 14 15 15 15 17 18 18 20 21 22 25 27 28 30 34 35 35 35 36 35 33 30 27 25 24 23 22 21 21 20 20 20 21 21 22
14 15 15 15 16 16 17 17 17 17 17 16 16 16 18 18 19 22 24 25 29 32 34 37 39 40 38 34 30 28 26 24 23 23 22 22 21 20 19 20 21 22
16 17 17 17 18 18 19 19 19 19 19 18 16 17 19 19 18 20 22 23 28 31 33 37 40 41 37 33 30 28 26 24 23 22 22 20 19 19 18 19 21 22
17 18 18 19 19 20 20 21 21 20 20 20 18 18 21 20 18 20 21 21 26 30 33 37 40 40 35 31 28 26 25 23 22 22 20 18 18 19 19 20 22 23
18 18 19 19 20 20 21 21 21 21 21 20 18 17 18 19 18 18 17 16 21 29 34 38 40 38 34 30 27 25 24 22 21 21 19 18 19 20 21 22 24 24
19 19 19 20 20 21 21 22 22 22 22 21 17 14 15 17 17 16 15 16 21 30 36 39 39 36 32 28 25 23 22 20 20 19 18 18 19 21 22 24 24 25
22 21 21 21 21 20 21 22 23 23 22 21 18 14 13 15 16 16 17 20 26 33 37 38 36 33 29 26 23 21 19 17 17 17 16 17 19 21 23 24 24 25
25 24 23 23 22 21 20 21 22 23 22 20 18 14 13 14 16 17 20 24 29 34 37 37 34 30 26 23 20 18 16 14 14 13 13 15 19 21 22 23 24 26
26 26 25 24 23 21 20 20 21 22 21 18 16 14 14 14 15 18 22 26 30 34 36 34 30 26 22 19 16 15 13 12 11 10 10 13 16 18 20 22 23 26
27 27 27 26 25 23 22 21 21 20 18 16 13 13 14 15 17 19 22 26 31 33 32 29 25 21 17 14 12 12 12 11 11 10 12 13 15 16 19 22 24 25
27 28 28 27 26 25 24 22 21 19 16 13 12 14 15 16 18 20 22 26 31 31 28 24 20 16 13 11 11 11 12 13 13 13 14 15 17 20 22 24 24 24
Wind_Direction
201 204 206 207 211 216 218 219 227 238 235 213 207 210 217 229 237 232 229 228 229 235 239 255 270 263 252 70 63 54 53 51 47 40 35 30 24 17 9 4 359 353
204 206 209 210 212 217 219 221 228 238 241 233 218 211 221 235 241 240 242 242 242 245 250 256 260 260 259 277 13 33 28 20 23 24 20 18 15 12 10 6 3 359
210 210 212 213 215 219 221 222 227 233 238 240 232 226 232 242 242 239 241 243 246 251 254 257 259 263 262 262 276 289 317 340 355 0 4 6 2 360 2 1 0 2
217 216 216 217 220 223 225 227 229 233 237 241 241 239 241 244 242 240 240 240 243 247 251 256 258 262 267 269 275 279 287 303 318 334 345 351 352 353 353 354 355 355
224 223 222 222 224 226 228 230 233 236 240 243 245 245 245 246 245 244 244 242 244 246 247 252 255 257 264 270 274 278 283 289 299 312 321 327 334 339 341 345 346 346
231 229 229 229 229 231 232 234 236 239 242 245 248 249 249 250 249 248 249 247 247 249 249 249 251 252 255 260 267 274 278 282 290 299 308 316 322 326 330 335 340 342
237 237 236 236 236 237 237 239 240 241 244 246 249 250 252 252 251 250 251 251 250 251 252 252 252 251 251 253 258 263 268 274 280 286 295 304 313 318 324 329 335 339
243 243 243 243 243 243 243 243 244 245 246 247 248 249 252 254 254 252 251 251 250 252 253 254 254 254 253 253 256 260 263 266 269 274 279 287 297 306 313 320 325 330
251 251 250 250 248 248 248 248 248 249 250 250 250 250 251 252 253 253 252 251 250 250 252 254 254 255 256 255 257 261 263 265 266 268 272 278 287 295 302 309 315 320
256 258 259 260 257 255 253 252 251 252 252 253 253 252 252 252 252 252 252 250 248 247 250 253 255 256 257 257 258 261 263 267 270 271 275 281 285 291 297 303 308 312
253 253 255 260 262 261 259 256 256 256 254 253 254 255 254 254 253 252 250 248 248 249 250 253 256 258 257 256 258 261 263 267 272 276 280 283 287 291 296 301 305 309
255 251 251 253 254 257 259 256 256 259 260 256 255 256 257 257 256 254 252 248 246 248 250 251 253 254 253 253 255 259 262 266 271 276 279 282 286 291 295 299 304 307
256 252 253 253 251 252 255 254 252 257 261 260 257 257 257 259 259 256 252 246 241 242 245 246 247 247 247 248 252 256 260 264 269 273 276 279 283 288 292 298 302 305
260 256 257 259 256 253 254 253 250 252 255 257 258 259 258 259 258 254 253 250 244 241 240 240 242 241 239 241 247 254 259 262 266 269 273 277 282 286 290 296 301 304
276 273 271 273 275 271 266 261 255 253 251 251 255 256 257 257 254 251 256 256 248 241 239 240 240 237 236 241 247 251 255 258 262 266 269 274 279 284 289 294 299 302
298 291 286 283 283 283 282 279 274 266 257 251 251 249 249 251 250 252 258 256 246 241 241 241 240 238 241 246 248 248 250 254 259 264 267 271 275 282 289 294 298 301
305 301 298 295 290 286 284 283 283 280 273 263 254 246 246 248 247 251 257 254 248 244 243 242 241 240 242 245 245 244 245 251 257 262 266 271 276 283 291 296 299 302
305 303 300 298 297 294 290 286 283 281 279 276 268 259 257 253 246 251 259 255 247 244 243 241 240 239 239 240 240 241 243 249 255 260 266 273 280 286 292 296 299 301
306 304 301 297 295 294 293 292 288 284 280 278 273 268 263 253 243 252 259 253 245 243 238 235 235 236 236 236 237 238 241 247 253 258 265 274 281 288 293 296 297 299
307 304 301 299 296 293 291 290 290 288 285 279 271 264 259 247 241 246 244 234 237 238 232 230 232 234 233 234 234 236 241 246 252 260 269 277 284 289 293 294 295 296
306 302 300 298 297 295 291 289 288 287 286 281 270 257 251 245 239 236 227 223 231 231 228 229 231 231 230 231 232 235 241 247 255 265 276 284 288 294 296 296 297 299
305 303 300 296 295 294 291 289 288 286 285 280 270 256 246 242 233 227 230 236 234 229 228 229 229 226 225 226 228 234 242 251 263 276 285 289 293 297 298 299 301 303
303 302 300 297 293 290 288 287 287 285 282 277 266 252 243 238 229 229 238 240 235 231 229 227 222 219 220 222 227 236 244 256 272 283 286 289 294 297 299 300 301 303
299 298 296 295 292 288 284 282 282 282 278 269 258 247 241 234 229 234 240 237 233 232 228 221 215 213 215 220 228 239 250 262 274 280 281 286 291 294 295 297 299 302
296 294 292 290 287 285 283 278 275 274 268 258 249 243 239 235 234 239 239 232 229 225 217 210 207 207 210 219 233 246 258 267 273 279 281 284 286 288 291 296 299 302
295 294 292 288 283 281 279 274 270 265 257 247 241 236 234 236 239 242 237 226 217 210 201 196 196 199 207 225 241 254 264 270 275 280 282 284 287 291 296 300 302 301